Stevens Pass
Stevens Pass - WSDOT Schmidt Haus
Latest observation 08/31 19:00 PDT
| Time (PDT) | Temp °F 3950' | RH % 3950' | Pcp1 in 3950' | PcpSum in 3950' | 24Sno in 3950' | SnoHt in 3950' | Pres millibar 3950' |
|---|---|---|---|---|---|---|---|
| 08/31 19:00 | 66 | 45 | 0.00 | 0.17 | 130.0 | 5.3 | 1013 |
| 08/31 18:00 | 68 | 41 | 0.00 | 0.17 | 132.2 | 5.3 | 1013 |
| 08/31 17:00 | 69 | 40 | 0.00 | 0.17 | 140.0 | 5.2 | 1013 |
| 08/31 16:00 | 71 | 39 | 0.00 | 0.17 | 139.5 | 5.1 | 1013 |
| 08/31 15:00 | 70 | 40 | 0.00 | 0.17 | 145.9 | 4.9 | 1014 |
| 08/31 14:00 | 69 | 43 | 0.00 | 0.17 | 152.9 | 5.1 | 1014 |
| 08/31 13:00 | 66 | 49 | 0.00 | 0.17 | 147.1 | 5.5 | 1015 |
| 08/31 12:00 | 63 | 57 | 0.00 | 0.17 | 155.3 | 5.2 | 1015 |
| 08/31 11:00 | 60 | 62 | 0.00 | 0.17 | 149.6 | 6.2 | 1016 |
| 08/31 10:00 | 55 | 72 | 0.00 | 0.17 | 116.2 | 6.4 | 1016 |
| 08/31 09:00 | 49 | 89 | 0.00 | 0.17 | 25.6 | 6.7 | 1016 |
| 08/31 08:00 | 46 | 94 | 0.00 | 0.17 | 21.9 | 7.2 | 1016 |
| 08/31 07:00 | 45 | 94 | 0.00 | 0.17 | 24.4 | 6.9 | 1016 |
| 08/31 06:00 | 45 | 94 | 0.00 | 0.17 | 22.3 | 6.9 | 1016 |
| 08/31 05:00 | 45 | 94 | 0.00 | 0.17 | 20.4 | 6.8 | 1016 |
| 08/31 04:00 | 45 | 94 | 0.00 | 0.17 | 20.2 | 6.7 | 1016 |
| 08/31 03:00 | 45 | 94 | 0.00 | 0.17 | 22.1 | 6.9 | 1016 |
| 08/31 02:00 | 44 | 91 | 0.00 | 0.17 | 19.4 | 6.5 | 1017 |
| 08/31 01:00 | 45 | 90 | 0.00 | 0.17 | 27.6 | 6.8 | 1017 |
| 08/31 00:00 | 46 | 88 | 0.00 | 0.17 | 41.0 | 6.7 | 1017 |
| 08/30 23:00 | 48 | 90 | 0.00 | 0.17 | 59.2 | 6.4 | 1018 |
| 08/30 22:00 | 49 | 89 | 0.00 | 0.17 | 86.1 | 6.2 | 1018 |
| 08/30 21:00 | 49 | 88 | 0.00 | 0.17 | 102.5 | 6.0 | 1019 |
| 08/30 20:00 | 50 | 86 | 0.00 | 0.17 | 121.3 | 6.3 | 1018 |
| 08/30 19:00 | 51 | 84 | 0.00 | 0.17 | 134.1 | 6.1 | 1019 |
| 08/30 18:00 | 51 | 81 | 0.00 | 0.17 | 137.3 | 6.1 | 1019 |
| 08/30 17:00 | 52 | 78 | 0.00 | 0.17 | 138.0 | 6.1 | 1019 |
| 08/30 16:00 | 52 | 80 | 0.00 | 0.17 | 142.9 | 6.1 | 1019 |
| 08/30 15:00 | 53 | 76 | 0.00 | 0.17 | 146.2 | 6.0 | 1019 |
| 08/30 14:00 | 51 | 81 | 0.00 | 0.17 | 136.7 | 6.1 | 1019 |
| 08/30 13:00 | 50 | 82 | 0.00 | 0.17 | 137.6 | 6.4 | 1019 |
| 08/30 12:00 | 48 | 87 | 0.00 | 0.17 | 127.6 | 6.7 | 1019 |
| 08/30 11:00 | 46 | 92 | 0.00 | 0.17 | 108.9 | 6.0 | 1019 |
| 08/30 10:00 | 46 | 94 | 0.00 | 0.17 | 84.7 | 6.3 | 1019 |
| 08/30 09:00 | 45 | 96 | 0.00 | 0.17 | 38.1 | 6.6 | 1019 |
| 08/30 08:00 | 45 | 96 | 0.00 | 0.17 | 26.0 | 7.0 | 1019 |
| 08/30 07:00 | 45 | 96 | 0.00 | 0.17 | 33.4 | 7.0 | 1018 |
| 08/30 06:00 | 45 | 95 | 0.00 | 0.17 | 29.3 | 6.7 | 1018 |
| 08/30 05:00 | 45 | 95 | 0.00 | 0.17 | 31.2 | 6.6 | 1018 |
| 08/30 04:00 | 44 | 95 | 0.00 | 0.17 | 23.3 | 6.6 | 1018 |
| 08/30 03:00 | 45 | 95 | 0.00 | 0.17 | 24.1 | 6.6 | 1018 |
| 08/30 02:00 | 45 | 95 | 0.00 | 0.17 | 26.6 | 6.6 | 1018 |
| 08/30 01:00 | 45 | 95 | 0.00 | 0.17 | 26.3 | 6.5 | 1018 |
| 08/30 00:00 | 46 | 94 | 0.00 | 0.17 | 29.1 | 6.4 | 1018 |
| 08/29 23:00 | 46 | 95 | 0.00 | 0.17 | 25.2 | 6.4 | 1018 |
| 08/29 22:00 | 46 | 94 | 0.00 | 0.17 | 27.1 | 6.7 | 1019 |
| 08/29 21:00 | 46 | 93 | 0.00 | 0.17 | 37.5 | 6.5 | 1018 |
| 08/29 20:00 | 46 | 92 | 0.00 | 0.17 | 63.4 | 6.6 | 1018 |
| 08/29 19:00 | 47 | 91 | 0.00 | 0.17 | 114.6 | 6.8 | 1018 |
| 08/29 18:00 | 47 | 91 | 0.00 | 0.17 | 123.7 | 6.9 | 1018 |
| 08/29 17:00 | 47 | 88 | 0.00 | 0.17 | 128.6 | 7.0 | 1018 |
| 08/29 16:00 | 47 | 89 | 0.00 | 0.17 | 116.8 | 6.9 | 1017 |
| 08/29 15:00 | 47 | 92 | 0.01 | 0.17 | 103.8 | 6.9 | 1017 |
| 08/29 14:00 | 46 | 93 | 0.03 | 0.16 | 77.1 | 7.2 | 1017 |
| 08/29 13:00 | 47 | 93 | 0.05 | 0.13 | 105.8 | 7.0 | 1016 |
| 08/29 12:00 | 47 | 93 | 0.01 | 0.08 | 87.5 | 7.0 | 1016 |
| 08/29 11:00 | 45 | 93 | 0.01 | 0.07 | 67.7 | 7.1 | 1015 |
| 08/29 10:00 | 45 | 93 | 0.01 | 0.06 | 44.5 | 7.0 | 1015 |
| 08/29 09:00 | 45 | 95 | 0.01 | 0.05 | 39.5 | 7.1 | 1015 |
| 08/29 08:00 | 45 | 95 | 0.00 | 0.04 | 43.3 | 6.8 | 1014 |
| 08/29 07:00 | 45 | 96 | 0.00 | 0.04 | 61.2 | 7.0 | 1014 |
| 08/29 06:00 | 46 | 96 | 0.01 | 0.04 | 67.5 | 6.8 | 1014 |
| 08/29 05:00 | 47 | 95 | 0.00 | 0.03 | 69.2 | 7.0 | 1014 |
| 08/29 04:00 | 47 | 94 | 0.02 | 0.03 | 44.8 | 7.0 | 1015 |
| 08/29 03:00 | 48 | 94 | 0.01 | 0.01 | 32.8 | 7.2 | 1015 |
| 08/29 02:00 | 49 | 94 | 0.00 | 0.00 | 39.8 | 6.4 | 1015 |
| 08/29 01:00 | 49 | 89 | 0.00 | 0.00 | 54.7 | 6.2 | 1015 |
| 08/29 00:00 | 50 | 89 | 0.00 | 0.00 | 76.0 | 6.4 | 1015 |
| 08/28 23:00 | 50 | 88 | 0.00 | 0.00 | 96.2 | 6.1 | 1016 |
| 08/28 22:00 | 50 | 84 | 0.00 | 0.00 | 111.0 | 6.4 | 1016 |
| 08/28 21:00 | 52 | 80 | 0.00 | 0.00 | 124.0 | 6.3 | 1016 |
| 08/28 20:00 | 54 | 76 | 0.00 | 0.00 | 129.7 | 6.2 | 1016 |
| 08/28 19:00 | 56 | 71 | 0.00 | 0.00 | 133.2 | 5.9 | 1016 |
| 08/28 18:00 | 59 | 65 | 0.00 | 0.00 | 144.5 | 6.0 | 1016 |
| 08/28 17:00 | 61 | 57 | 0.00 | 0.00 | 151.8 | 5.7 | 1016 |
| 08/28 16:00 | 63 | 55 | 0.00 | 0.00 | 156.5 | 5.4 | 1016 |
| 08/28 15:00 | 62 | 56 | 0.00 | 0.00 | 153.5 | 5.1 | 1017 |
| 08/28 14:00 | 62 | 57 | 0.00 | 0.00 | 152.7 | 5.5 | 1017 |
| 08/28 13:00 | 60 | 60 | 0.00 | 0.00 | 140.8 | 5.6 | 1017 |
| 08/28 12:00 | 58 | 68 | 0.00 | 0.00 | 153.5 | 5.6 | 1017 |
| 08/28 11:00 | 54 | 76 | 0.00 | 0.00 | 144.4 | 5.4 | 1018 |
| 08/28 10:00 | 52 | 86 | 0.00 | 0.00 | 134.0 | 5.9 | 1018 |
| 08/28 09:00 | 50 | 90 | 0.00 | 0.00 | 112.9 | 6.0 | 1018 |
| 08/28 08:00 | 49 | 93 | 0.00 | 0.00 | 71.3 | 6.0 | 1018 |
| 08/28 07:00 | 50 | 93 | 0.00 | 0.00 | 52.3 | 5.9 | 1018 |
| 08/28 06:00 | 50 | 92 | 0.00 | 0.00 | 61.3 | 6.2 | 1018 |
| 08/28 05:00 | 50 | 88 | 0.00 | 0.00 | 71.7 | 6.0 | 1018 |
| 08/28 04:00 | 50 | 89 | 0.00 | 0.00 | 81.6 | 6.2 | 1018 |
| 08/28 03:00 | 50 | 88 | 0.00 | 0.00 | 89.2 | 6.1 | 1018 |
| 08/28 02:00 | 51 | 86 | 0.00 | 0.00 | 119.9 | 6.0 | 1019 |
| 08/28 01:00 | 52 | 86 | 0.00 | 0.00 | 129.8 | 6.2 | 1019 |
| 08/28 00:00 | 53 | 85 | 0.00 | 0.00 | 130.6 | 6.0 | 1018 |
| 08/27 23:00 | 53 | 83 | 0.00 | 0.00 | 133.1 | 6.0 | 1019 |
| 08/27 22:00 | 54 | 80 | 0.00 | 0.00 | 132.3 | 5.7 | 1019 |
| 08/27 21:00 | 55 | 76 | 0.00 | 0.00 | 134.0 | 5.6 | 1018 |
| 08/27 20:00 | 55 | 75 | 0.00 | 0.00 | 130.1 | 5.8 | 1018 |
| 08/27 19:00 | 56 | 71 | 0.00 | 0.00 | 141.0 | 5.9 | 1018 |
| 08/27 18:00 | 57 | 68 | 0.00 | 0.00 | 134.2 | 5.4 | 1018 |
| 08/27 17:00 | 58 | 68 | 0.00 | 0.00 | 147.2 | 5.9 | 1018 |
| 08/27 16:00 | 58 | 67 | 0.00 | 0.00 | 143.8 | 5.7 | 1019 |
| 08/27 15:00 | 58 | 67 | 0.00 | 0.00 | 149.9 | 5.7 | 1019 |
| 08/27 14:00 | 65 | 51 | 0.00 | 0.00 | 156.4 | 4.6 | 1018 |
| 08/27 13:00 | 63 | 50 | 0.00 | 0.00 | 148.6 | 5.2 | 1018 |
| 08/27 12:00 | 60 | 53 | 0.00 | 0.00 | 151.5 | 5.3 | 1018 |
| 08/27 11:00 | 57 | 66 | 0.00 | 0.00 | 147.7 | 5.3 | 1018 |
| 08/27 10:00 | 54 | 78 | 0.00 | 0.00 | 144.3 | 5.6 | 1018 |
| 08/27 09:00 | 55 | 77 | 0.00 | 0.00 | 140.6 | 5.7 | 1017 |
| 08/27 08:00 | 52 | 86 | 0.00 | 0.00 | 120.1 | 6.3 | 1018 |
| 08/27 07:00 | 51 | 86 | 0.00 | 0.00 | 109.8 | 6.1 | 1017 |
| 08/27 06:00 | 52 | 85 | 0.00 | 0.00 | 103.6 | 5.8 | 1017 |
| 08/27 05:00 | 51 | 86 | 0.00 | 0.00 | 89.2 | 6.0 | 1017 |
| 08/27 04:00 | 50 | 84 | 0.00 | 0.00 | 78.9 | 6.0 | 1017 |
| 08/27 03:00 | 51 | 84 | 0.00 | 0.00 | 86.7 | 6.1 | 1017 |
| 08/27 02:00 | 51 | 82 | 0.00 | 0.00 | 105.4 | 5.8 | 1017 |
| 08/27 01:00 | 52 | 82 | 0.00 | 0.00 | 109.6 | 5.9 | 1018 |
| 08/27 00:00 | 52 | 80 | 0.00 | 0.00 | 114.2 | 6.0 | 1018 |
| 08/26 23:00 | 53 | 78 | 0.00 | 0.00 | 120.6 | 5.5 | 1018 |
| 08/26 22:00 | 55 | 76 | 0.00 | 0.00 | 125.5 | 6.0 | 1018 |
| 08/26 21:00 | 57 | 70 | 0.00 | 0.00 | 125.3 | 5.8 | 1018 |
| 08/26 20:00 | 61 | 62 | 0.00 | 0.00 | 124.7 | 5.3 | 1018 |
| 08/26 19:00 | 65 | 54 | 0.00 | 0.00 | 135.7 | 5.0 | 1018 |
| 08/26 18:00 | 68 | 45 | 0.00 | 0.00 | 133.6 | 5.1 | 1018 |
| 08/26 17:00 | 69 | 38 | 0.00 | 0.00 | 138.2 | -7999.0 | 1018 |
| 08/26 16:00 | 71 | 39 | 0.00 | 0.00 | 138.5 | 4.8 | 1018 |
| 08/26 15:00 | 71 | 46 | 0.00 | 0.00 | 149.0 | 4.8 | 1018 |
| 08/26 14:00 | 72 | 52 | 0.00 | 0.00 | 154.5 | 5.0 | 1018 |
| 08/26 13:00 | 71 | 53 | 0.00 | 0.00 | 151.3 | 4.8 | 1018 |
| 08/26 12:00 | 67 | 62 | 0.00 | 0.00 | 155.7 | 4.9 | 1018 |
| 08/26 11:00 | 65 | 65 | 0.00 | 0.00 | 154.3 | 5.1 | 1018 |
| 08/26 10:00 | 60 | 79 | 0.00 | 0.00 | 144.2 | 5.6 | 1018 |
| 08/26 09:00 | 55 | 85 | 0.00 | 0.00 | 98.1 | 5.8 | 1018 |
| 08/26 08:00 | 52 | 85 | 0.00 | 0.00 | 76.0 | 6.1 | 1018 |
| 08/26 07:00 | 51 | 83 | 0.00 | 0.00 | 72.6 | 5.9 | 1018 |
| 08/26 06:00 | 52 | 81 | 0.00 | 0.00 | 88.9 | 5.3 | 1018 |
| 08/26 05:00 | 52 | 78 | 0.00 | 0.00 | 115.1 | 5.9 | 1018 |
| 08/26 04:00 | 52 | 75 | 0.00 | 0.00 | 118.9 | 5.9 | 1019 |
| 08/26 03:00 | 53 | 73 | 0.00 | 0.00 | 107.9 | 5.9 | 1019 |
| 08/26 02:00 | 54 | 82 | 0.00 | 0.00 | 88.1 | 5.7 | 1019 |
| 08/26 01:00 | 55 | 79 | 0.00 | 0.00 | 112.0 | 5.7 | 1020 |
| 08/26 00:00 | 57 | 75 | 0.00 | 0.00 | 123.3 | 5.6 | 1019 |
| 08/25 23:00 | 59 | 73 | 0.00 | 0.00 | 126.6 | 5.7 | 1020 |
| 08/25 22:00 | 60 | 73 | 0.00 | 0.00 | 128.8 | 5.8 | 1020 |
| 08/25 21:00 | 63 | 67 | 0.00 | 0.00 | 133.2 | 5.5 | 1020 |
| 08/25 20:00 | 67 | 59 | 0.00 | 0.00 | 135.5 | 5.1 | 1020 |
| 08/25 19:00 | 71 | 54 | 0.00 | 0.00 | 136.9 | 5.1 | 1019 |
| 08/25 18:00 | 73 | 51 | 0.00 | 0.00 | 140.3 | 4.8 | 1019 |
| 08/25 17:00 | 76 | 42 | 0.00 | 0.00 | 136.4 | 4.6 | 1019 |
| 08/25 16:00 | 81 | 25 | 0.00 | 0.00 | 121.5 | 4.2 | 1018 |
| 08/25 15:00 | 79 | 28 | 0.00 | 0.00 | 135.8 | 4.6 | 1019 |
| 08/25 14:00 | 81 | 28 | 0.00 | 0.00 | 129.3 | 4.4 | 1019 |
| 08/25 13:00 | 81 | 28 | 0.00 | 0.00 | 133.3 | 4.6 | 1019 |
| 08/25 12:00 | 76 | 33 | 0.00 | 0.00 | 131.0 | 4.7 | 1019 |
| 08/25 11:00 | 72 | 37 | 0.00 | 0.00 | 137.5 | 5.2 | 1020 |
| 08/25 10:00 | 66 | 49 | 0.00 | 0.00 | 143.7 | 5.2 | 1020 |
| 08/25 09:00 | 59 | 65 | 0.00 | 0.00 | 133.9 | 5.7 | 1020 |
| 08/25 08:00 | 56 | 67 | 0.00 | 0.00 | 128.9 | 6.0 | 1020 |
| 08/25 07:00 | 55 | 65 | 0.00 | 0.00 | 129.4 | 5.8 | 1020 |
| 08/25 06:00 | 56 | 64 | 0.00 | 0.00 | 125.0 | 5.9 | 1019 |
| 08/25 05:00 | 55 | 65 | 0.00 | 0.00 | 128.7 | 5.6 | 1019 |
| 08/25 04:00 | 56 | 63 | 0.00 | 0.00 | 132.1 | 5.9 | 1019 |
| 08/25 03:00 | 57 | 62 | 0.00 | 0.00 | 128.3 | 5.8 | 1019 |
| 08/25 02:00 | 58 | 60 | 0.00 | 0.00 | 129.1 | 5.6 | 1019 |
| 08/25 01:00 | 58 | 60 | 0.00 | 0.00 | 127.0 | 5.8 | 1020 |
| 08/25 00:00 | 59 | 60 | 0.00 | 0.00 | 128.9 | 5.7 | 1020 |
| 08/24 23:00 | 59 | 60 | 0.00 | 0.00 | 125.5 | 5.7 | 1020 |
| 08/24 22:00 | 61 | 57 | 0.00 | 0.00 | 126.8 | 5.6 | 1020 |
| 08/24 21:00 | 63 | 54 | 0.00 | 0.00 | 121.2 | 5.3 | 1019 |
| 08/24 20:00 | 68 | 47 | 0.00 | 0.00 | 129.3 | 4.9 | 1019 |

